Powrót do katalogu

CZ-6A DEB

AktywnyPO
NORAD 61833·DEBRIS·🇨🇳 China

Wystrzelony Aug 6, 2024 z Taiyuan Satellite Launch Center

Loading…

Następne Przeloty (najbliższe 24 godziny)

TLE

ŚwieżeSource: Space-Track

Epoka: Sep 14, 2026, 10:15 UTC

1 61833U 24140ACZ 26257.42738704  .00009742  00000-0  17687-2 0  9992
2 61833  88.8545 245.9716 0053167 349.9741  10.0408 14.65214915105719

Śledź CZ-6A DEB w czasie rzeczywistym z AllMySat

Download on the App Store